Regional Weather Roundup
Issued by NWS

Home | Current Version | Previous Version | Text Only | Print | Product List | Glossary On
Versions: 1 2 3 4 5 6 7 8 9 10 11 12 13 14 15 16 17 18 19 20 21 22 23 24 25 26 27 28 29 30 31 32 33 34 35 36 37 38 39 40 41 42 43 44 45 46 47 48 49 50
000
ASUS44 KFWD 211415
RWRTX
NORTH TEXAS HOURLY WEATHER ROUNDUP
NATIONAL WEATHER SERVICE FORT WORTH TX
900 AM CDT TUE OCT 21 2014

NOTE: "FAIR" INDICATES FEW OR NO CLOUDS BELOW 12,000 FEET WITH NO
SIGNIFICANT WEATHER AND/OR OBSTRUCTIONS TO VISIBILITY.

TXZ118-119-211500-
DALLAS/FORT WORTH METROPLEX

CITY           SKY/WX    TMP DP  RH WIND       PRES   REMARKS
DFW AIRPORT    MOSUNNY   64  59  83 CALM      30.11R
DALLAS LOVE    MOSUNNY   66  59  78 CALM      30.11R
FTW MEACHAM    SUNNY     64  60  87 CALM      30.11R HAZE
DAL-EXECUTIVE  SUNNY     66  60  81 CALM      30.11R
FTW-ALLIANCE   MOSUNNY   60  59  96 CALM      30.11R
FTW-NAS-JRB    MOSUNNY   65  57  75 CALM      30.15R
FTW-SPINKS     SUNNY     57  57 100 CALM      30.12R
ARLINGTON      SUNNY     62  57  83 CALM      30.11R
GRAND PRAIRIE  SUNNY     64  61  88 MISG      30.13R
ADDISON        MOSUNNY   66  59  77 CALM      30.11R
MESQUITE       SUNNY     59  57  94 CALM      30.12R
LANCASTER      SUNNY     59  54  84 CALM      30.13R
$$

TXZ091>094-102>105-117-120-121-131>134-211500-
NORTH CENTRAL TEXAS

CITY           SKY/WX    TMP DP  RH WIND       PRES   REMARKS
SHRMAN/DENISON SUNNY     62  60  94 CALM      30.12R
GAINESVILLE    SUNNY     59  58  94 MISG      30.13R FOG
BOWIE          SUNNY     61  59  92 CALM      30.11R FOG
BRIDGEPORT     SUNNY     60  60 100 CALM      30.13R FOG
DECATUR        SUNNY     66  58  76 CALM      30.12R
DENTON         SUNNY     60  58  92 CALM      30.11R FOG
MCKINNEY       SUNNY     60  58  92 CALM      30.11R FOG
GREENVILLE     SUNNY     61  59  94 CALM      30.11R
ROCKWALL       SUNNY     64  59  86 CALM      30.11R
TERRELL        SUNNY     61  56  83 CALM      30.12R
WAXAHACHIE     SUNNY     63  62  96 CALM      30.13R
CLEBURNE       SUNNY     61  61 100 CALM      30.13R FOG
GRANBURY       SUNNY     60  58  91 CALM      30.12R FOG
$$

TXZ083>090-098>101-113>116-127>130-139>142-154-155-211500-
WESTERN NORTH TEXAS

CITY           SKY/WX    TMP DP  RH WIND       PRES   REMARKS
WICHITA FALLS  SUNNY     61  58  90 CALM      30.10R FOG
WF-KICKAPOO    SUNNY     62  57  86 SW5       30.11R
VERNON         SUNNY     63  57  82 CALM      30.11R
ABILENE        SUNNY     62  56  80 CALM      30.12R
ABILENE-DYESS  SUNNY     60  55  81 CALM      30.11R
BRECKENRIDGE   SUNNY     62  58  84 CALM      30.11R FOG
GRAHAM         SUNNY     61  58  92 CALM      30.10R
MINERAL WELLS  SUNNY     62  59  90 SE3       30.11R FOG
STEPHENVILLE   SUNNY     60  56  88 CALM      30.14R
COMANCHE       SUNNY     58  58 100 CALM      30.12R FOG
BROWNWOOD      SUNNY     57  55  94 CALM      30.12R FOG
COLEMAN        SUNNY     58  56  92 CALM      30.12R
BRADY          SUNNY     64  57  77 CALM      30.11R
$$

TXZ143>147-156>162-174-175-211500-
CENTRAL TEXAS

CITY           SKY/WX    TMP DP  RH WIND       PRES   REMARKS
WACO           SUNNY     62  59  90 CALM      30.11R FOG
WACO-TSTC      SUNNY     59  59 100 CALM      30.11R FOG
WACO-MCGREGOR  SUNNY     59  54  82 NE3       30.12R
HILLSBORO      SUNNY     64  60  89 CALM      30.12R
CORSICANA      SUNNY     61  59  93 CALM      30.12R FOG
MEXIA          SUNNY     62  58  87 CALM      30.10R
HEARNE         SUNNY     59  58  94 CALM      30.10R
CAMERON        SUNNY     60  59  98 CALM      30.10R FOG
TEMPLE         SUNNY     61  55  82 CALM      30.10R
KILLEEN        SUNNY     64  59  82 NW3       30.10R FOG
KILLEEN-SKYLRK SUNNY     61  54  77 CALM      30.09R
FORT HOOD      SUNNY     67  61  81 CALM      30.10R
GATESVILLE     SUNNY     61  55  82 CALM      30.13R
HAMILTON       SUNNY     62  62 100 CALM      30.12R
LAMPASAS       SUNNY     62  59  91 N5        30.09R
$$

TXZ095>097-106>112-122>126-135>138-148>153-164>167-211500-
EAST TEXAS

CITY           SKY/WX    TMP DP  RH WIND       PRES   REMARKS
PARIS          SUNNY     61  54  77 E8        30.12R
SULPHUR SPRNGS   N/A     61  60  95 E3        30.13R FOG
MOUNT PLEASANT SUNNY     59  59 100 CALM      30.13R
MINEOLA        SUNNY     59  59 100 CALM      30.13R
TYLER          SUNNY     63  56  78 CALM      30.12R
LONGVIEW       SUNNY     61  56  83 CALM      30.11R
MARSHALL       SUNNY     62  58  88 CALM      30.13R
ATHENS         SUNNY     59  55  88 CALM      30.11R
JACKSONVILLE   SUNNY     64  55  71 E3        30.13R
HENDERSON      SUNNY     58  56  91 CALM      30.13R
NACOGDOCHES    SUNNY     55  54  94 CALM      30.12R
LUFKIN         SUNNY     64  58  80 CALM      30.11R
$$

SUPPLEMENTAL OBSERVATIONS (CENTRAL)

CITY           SKY/WX    TMP DP  RH WIND       PRES   REMARKS
LAKE TEXOMA      N/A     66  59  77 W1          N/A
CADDO GRASSLND   N/A     61  57  88 W1          N/A
PAT MAYSE LAKE   N/A     59  57  94 NW1         N/A
GREENVILLE       N/A     64  59  82 CALM        N/A
PALESTINE        N/A     61  57  88 CALM        N/A
MCGREGOR         N/A     61  57  88 E1          N/A
TEMPLE           N/A     66  61  82 NE3         N/A
$$

SUPPLEMENTAL OBSERVATIONS (WEST)

CITY           SKY/WX    TMP DP  RH WIND       PRES   REMARKS
MILLERS CREEK    N/A     61  54  77 S2          N/A
POSSUM KINGDOM   N/A     64  57  77 SE2         N/A
LBJ GRASSLAND    N/A     66  59  77 S5          N/A
GRANBURY         N/A     63  57  82 CALM        N/A
HAMBY            N/A     63  55  77 SE2         N/A
IVIE RESERVOIR   N/A     61  55  82 S1          N/A
COLORADO BEND    N/A     63  57  82 E1          N/A
$$

SUPPLEMENTAL OBSERVATIONS (EAST)

CITY           SKY/WX    TMP DP  RH WIND       PRES   REMARKS
CLARKSVILLE      N/A     61  57  88 CALM        N/A
TEXARKANA        N/A     59  55  88 CALM        N/A
LINDEN           N/A     63  57  82 CALM        N/A
CADDO LAKE       N/A     61  59  94 CALM        N/A
GILMER           N/A     63  57  82 S1          N/A
HENDERSON        N/A     63  55  77 CALM        N/A
LUFKIN           N/A     63  57  82 MISG        N/A
N SABINE NF      N/A     54  52  94 MISG        N/A
$$

SUPPLEMENTAL OBSERVATIONS ARE A COLLECTION OF AUTOMATED INSTRUMENTS
THAT ARE MAINTAINED BY A VARIETY OF FEDERAL AND STATE AGENCIES.
CERTAIN ELEMENTS...SUCH AS HUMIDITY VALUES AND SUSTAINED WIND
SPEEDS...MAY BE APPROXIMATED.




USA.gov is the U.S. government's official web portal to all federal, state and local government web resources and services.